Showing default

EXPLORER 22, 899

Orbit data source: Space-Track

EXPLORER 22, 899 is a payload satellite owned by GSFC (US) in LEO that was launched on Sat, 10 Oct 1964 UTC via an SCOUT X-4 launch vehicle from the Air Force Western Test Range (AFWTR). Payload-class satellites include a variety of spacecraft equipped with specific instruments for various scientific and technological missions. These include communications satellites like Starlink; space stations such as the ISS; scientific satellites like the Hubble; Earth observation satellites from companies like Planet Labs, Umbra, and HawkEye 360; GPS; miniature CubeSats for education and research; and military/defense satellites.

Loading next visibility...
Identifier
899, 1964-064A
Orbit
LEO
Country
Flag of USUS
Related business
Manufacturer
APL
Mission
Civil Science
Bus & Motor
TRANSIT 5, Unknown motor
Mass
52 kg wet, 52 kg dry
Launch date (UTC)
1964-10-10 (61 years ago)
Launch vehicle
SCOUT X-4
Launch site
Air Force Western Test Range (AFWTR)
Object type
Payload
Rocket body
Debris
Shape & HBR
Oct Cyl + 4 Pan + 2 Rod, 2.0 m
Radar Cross Section
1.165 m², Large (>1 m²)

Expand to show TLE details & history
Last TLE update: 23 hours ago

TLE from 23 hours ago
0 EXPLORER 22
1 00899U 64064A   25260.94118568  .00000201  00000-0  16836-3 0  9993
2 00899  79.6880  64.9020 0119999 186.0136 173.9583 13.82932686 67344
Epoch: 2025-09-17T22:35Z
TLE epoch observation values (Epoch: 2025-09-17T22:35:18.442Z)
Latitude
-0.00001°
Longitude
88.96524°
Altitude
1,043.83 km
Speed
7.286 km/s
True Right ascension
04h 19m 36s
True Declination
0° 00' 00"
Sunlit
Object was in daylight at epoch
Visualization orbit readout
Latitude
Unknown
Longitude
Unknown
Altitude
Unknown
Speed
Unknown
Apparent Right ascension
Unknown
Apparent Declination
Unknown
Sunlit
N/A
Visualization observer readout
Local Sidereal Time
14:10:25
Azimuth
Unknown
Elevation
Unknown
Doppler factor
Unknown
Orbital elements
Apogee altitude
1,038.74 km
Perigee altitude
862.847 km
Semi-major axis
7,328.93 km
Eccentricity
0.012
Inclination
79.688°
RAAN
64.902°
Arg. of periapsis
186.0136°
True anomaly
174.1009°
Mean anomaly
173.9583°
Eccentric anomaly
174.02981°
Mean motion
3.45925 °/min
Orbital period
104.07 mins
BSTAR
0.00016836
Loading maneuver chart data...
Computing Atmospheric mass density...
Loading historical data...
Loading historical data...
Loading historical data...
Loading historical data...
Loading historical data...
Loading historical data...
Loading historical data...
Other satellites on launch #64 in the year 1964 (1964-10-10 UTC)

Documentation

Showing up to 5 results
|